Home > Time Zones > World Clock > Weather > U.S.A. > Mesa > Past weeks

Flag for U.S.A. Weather past 2 weeks in Mesa, Arizona, U.S.A.

Now
64 °F

Clear.


Feels Like: 64 °F
Forecast: 62 / 91 °F
Wind: 6 mph from Southeast

Location: Williams Gateway Airport

Current Time: Mar 31, 2015 at 3:06:49 AM

Latest Report: Mar 31, 2015 at 2:35 AM


Visibility: 10 mi

Pressure: 29.95 "Hg

Humidity: 30%

Dew point: 32 °F

Location of MesaLocation

Historic Weather in Mesa — Graph

°F

Mesa temperature yesterday

Maximum temperature yesterday: 91 °F (at 2:47 PM)
Minimum temperature yesterday: 61 °F (at 3:35 AM)
Average temperature yesterday: 72 °F

Past Weeks' High & Low Weather Summary

 TemperatureHumidityPressure
High91 °F (Mar 28, 4:00 PM)94% (Mar 19, 3:15 AM)30.16 "Hg (Mar 19, 3:15 AM)
Low48 °F (Mar 24, 6:47 AM)7% (Mar 27, 4:50 PM)29.87 "Hg (Mar 17, 5:47 PM)
Average66 °F37%30.02 "Hg
* Reported Mar 16 1:15 AM — Mar 31 1:55 AM, Mesa, Weather by CustomWeather, © 2015

Note: Actual official high and low records may vary slightly from our data, if they occured in-between our weather recording intervals... More about our weather records

Advertising

Mesa weather history for previous 24 hours

 ConditionsComfort  
Time TempWeatherWind HumidityBarometerVisibility
1:55 AM
Tue, Mar 31
63 °FClear.7 mph32%29.95 "Hg10 mi
1:35 AM64 °FClear.7 mph30%29.95 "Hg10 mi
1:15 AM64 °FClear.7 mph30%29.95 "Hg10 mi
12:55 AM63 °FClear.8 mph32%29.95 "Hg10 mi
12:35 AM66 °FClear.8 mph28%29.95 "Hg10 mi
12:15 AM66 °FClear.8 mph28%29.95 "Hg10 mi
11:50 PM
Mon, Mar 30
68 °FClear.7 mph28%29.95 "Hg20 mi
10:47 PM66 °FClear.6 mph35%29.95 "Hg20 mi
9:47 PM72 °FClear.5 mph23%29.95 "Hg20 mi
8:47 PM75 °FPassing clouds.5 mph19%29.95 "Hg20 mi
7:47 PM84 °FClear.3 mph14%29.93 "Hg20 mi
6:47 PM86 °FPassing clouds.5 mph13%29.91 "Hg20 mi
5:47 PM90 °FPartly sunny.5 mph11%29.92 "Hg45 mi
4:50 PM90 °FPartly sunny.5 mph11%29.92 "Hg45 mi
3:47 PM90 °FScattered clouds.6 mph12%29.94 "Hg45 mi
2:47 PM91 °FScattered clouds.6 mph10%29.96 "Hg45 mi
1:47 PM90 °FScattered clouds.3 mph11%30.00 "Hg45 mi
12:50 PM90 °FScattered clouds.No wind12%30.02 "Hg45 mi
11:50 AM88 °FScattered clouds.No wind13%30.05 "Hg45 mi
11:38 AM86 °FScattered clouds.3 mph14%30.05 "Hg45 mi
10:47 AM82 °FScattered clouds.No wind17%30.06 "Hg45 mi
9:47 AM79 °FScattered clouds.3 mph20%30.06 "Hg45 mi
8:47 AM72 °FScattered clouds.5 mph27%30.05 "Hg45 mi
7:55 AM66 °FScattered clouds.6 mph26%30.04 "Hg45 mi
6:47 AM63 °FScattered clouds.6 mph30%30.03 "Hg45 mi
5:47 AM61 °FPassing clouds.5 mph31%30.01 "Hg20 mi
4:47 AM61 °FPassing clouds.6 mph36%30.00 "Hg20 mi
4:35 AM63 °FClear.5 mph30%30.00 "Hg10 mi
4:15 AM61 °FClear.8 mph34%30.00 "Hg10 mi
3:55 AM63 °FClear.7 mph30%30.00 "Hg10 mi
3:35 AM61 °FClear.6 mph31%29.99 "Hg10 mi
3:15 AM63 °FClear.6 mph27%29.99 "Hg10 mi
Weather by CustomWeather, © 2015

See weather overviewHow to use our weather pages